Погода в Сальто

Уругвай     31°23′19″S   57°57′15″W
темп.,
°C
ветер,
м/с
пор.,
м/с
влажн.,
%
обл.,
%
осадки,
мм/ч
давл.,
гПа
погр.,
м
9 августа, вт
вт900:00+10ююв3894100 0.8 1026407
03:00+9ююв4892100 1.5 1027477
06:00+8ююв51095100 3.6 1027463
09:00+8ююв4995100 7.3 1029436
12:00+10ююв4885100 0.4 1030599
15:00+14ююв4766100 0.5 10281380
18:00+12ююв377599 0.1 1028252
21:00+9ю36835 0.1 1030114
10 августа, ср
ср1000:00+7ююв36861 0.0 1030104
03:00+6вюв25910 0.0 1029108
06:00+5в25930 0.0 102897
09:00+7в25790 0.0 1028182
12:00+13всв345981 0.0 1028747
15:00+14всв34536 0.0 10261018
18:00+11всв2374100 0.0 102456
21:00+8всв247762 0.0 102566
11 августа, чт
чт1100:00+7всв368613 0.0 1025115
03:00+6св36930 0.0 1024124
06:00+6св36940 0.0 1024110
09:00+9св36850 0.0 1025214
12:00+15ссв57660 0.0 1025804
15:00+16ссв45580 0.0 10221017
18:00+13ссв22782 0.0 102039
21:00+10всв37906 0.0 1020114
12 августа, пт
пт1200:00+9св3994100 0.0 1020183
03:00+9св31095100 0.0 1019229
06:00+9св31095100 0.0 1017251
09:00+11св41188100 0.0 1018322
12:00+17ссв5970100 0.0 1017588
15:00+19ссв5666100 0.0 1015858
18:00+16ссв378327 0.0 1014196
21:00+14св379372 0.0 1016141
13 августа, сб
сб1300:00+13ссв36940 0.0 1016125
03:00+12св23950 0.0 101654
06:00+11всв22950 0.0 101620
09:00+14св24860 0.0 1017141
12:00+20всв34680 0.0 1017605
15:00+22всв34630 0.0 1015951
18:00+18в35830 0.0 1014100
21:00+15в39920 0.0 1014168